This is the latest recevied weather packets stored in our database for station/object HG8GL-6. If no packets are shown the sender has not sent any weather packets the latest 10 day(s).
| Time | Temp. | Humidity | Pressure | Rain* | Wind** | Luminosity | Snow |
|---|---|---|---|---|---|---|---|
| 1788124610 | 20.56° C | 52% | 1016 hPa | 0 mm | - | - | - |
| 1788123980 | 20.56° C | 51% | 1016 hPa | 0 mm | - | - | - |
| 1788123350 | 21.11° C | 50% | 1016 hPa | 0 mm | - | - | - |
| 1788122750 | 21.11° C | 49% | 1016 hPa | 0 mm | - | - | - |
| 1788122120 | 21.11° C | 48% | 1016 hPa | 0 mm | - | - | - |
| 1788121490 | 21.67° C | 47% | 1016 hPa | 0 mm | - | - | - |
| 1788120890 | 22.22° C | 46% | 1016 hPa | 0 mm | - | - | - |
| 1788120260 | 22.22° C | 45% | 1015 hPa | 0 mm | - | - | - |
| 1788119630 | 22.78° C | 43% | 1015 hPa | 0 mm | - | - | - |
| 1788119030 | 22.78° C | 43% | 1016 hPa | 0 mm | - | - | - |
| 1788118400 | 22.78° C | 43% | 1016 hPa | 0 mm | - | - | - |
| 1788117770 | 22.78° C | 44% | 1016 hPa | 0 mm | - | - | - |
| 1788117140 | 23.33° C | 43% | 1016 hPa | 0 mm | - | - | - |
| 1788116540 | 23.33° C | 42% | 1016 hPa | 0 mm | - | - | - |
| 1788115910 | 23.89° C | 41% | 1016 hPa | 0 mm | - | - | - |
| 1788115280 | 23.89° C | 39% | 1016 hPa | 0 mm | - | - | - |
| 1788114680 | 24.44° C | 38% | 1016 hPa | 0 mm | - | - | - |
| 1788114050 | 25° C | 37% | 1016 hPa | 0 mm | - | - | - |
| 1788113420 | 25.56° C | 36% | 1016 hPa | 0 mm | - | - | - |
| 1788112820 | 26.11° C | 35% | 1016 hPa | 0 mm | - | - | - |
| 1788112219 | 26.67° C | 40% | 1016.4 hPa | 0 mm | - | - | - |
| 1788073988 | 25.56° C | 49% | 1018 hPa | 0 mm | - | - | - |
| 1788073357 | 24.44° C | 53% | 1018 hPa | 0 mm | - | - | - |
| 1788072757 | 23.33° C | 56% | 1018 hPa | 0 mm | - | - | - |
| 1788072157 | 22.78° C | 61% | 1018 hPa | 0 mm | - | - | - |
* Rain latest hour (hover to see other rain measurements)
** Current wind speed in m/s (hover to see current wind gust speed)